Wind_Speed
22 22 22 22 22 22 22 21 20 19 19 18 17 17 16 16 16 15 14 14 14 15 15 15 14 14 14 14 15 16 16 17 17 17 17 15 12 10 8 7 7 8 8 9 9 9 10 10 11 11 12 12 13 14 15 16 17 18 19 20 21 21 22 22 22 22 21 21 21 20 20 19 18 17 16 16 16 15 14 13 12 11 10 10 9 9
22 22 22 22 22 22 22 21 21 20 19 18 17 17 16 15 15 15 15 15 15 15 15 15 14 14 14 15 15 16 17 17 18 18 16 14 12 10 9 8 7 8 8 9 9 10 10 11 11 11 12 12 13 13 14 15 15 16 16 16 17 17 18 18 19 19 20 20 20 19 18 18 17 17 16 16 15 14 13 11 11 10 10 9 9 8
22 23 23 23 22 22 22 22 21 20 19 18 17 16 16 15 15 15 15 15 16 16 15 15 15 15 15 15 16 17 17 18 18 17 16 14 12 11 9 8 8 8 8 9 10 10 11 11 11 12 12 12 12 13 13 13 14 14 14 14 14 14 15 15 16 16 17 18 18 17 17 17 17 17 16 15 14 13 11 10 9 9 8 8 7 7
23 24 23 23 23 23 23 23 22 21 20 18 17 16 16 16 15 15 16 16 16 16 15 15 15 15 15 15 16 17 17 18 17 17 16 14 13 11 10 8 8 8 9 9 10 10 11 11 12 12 12 12 12 12 12 13 13 13 13 13 13 13 13 14 15 15 16 16 17 17 16 16 16 16 15 14 13 12 10 9 8 7 7 7 6 6
24 24 24 24 23 23 24 23 22 21 20 18 17 17 16 16 15 15 16 16 17 16 16 15 15 15 15 15 16 17 17 18 17 17 16 14 13 12 10 9 8 8 9 9 10 11 11 12 12 12 11 11 11 12 12 12 12 12 12 13 13 13 14 15 15 16 16 17 17 17 16 16 15 15 14 14 12 11 9 8 6 6 6 6 5 5
24 24 24 24 24 24 24 23 22 21 19 18 17 17 16 15 15 15 16 17 17 17 16 15 15 15 15 15 16 17 18 18 18 17 16 15 14 13 12 10 9 9 9 10 10 11 11 11 11 11 11 11 11 12 12 12 12 12 13 13 14 14 15 16 17 17 17 17 17 17 16 15 14 14 13 12 11 10 8 6 5 5 5 5 5 4
24 24 24 24 24 24 23 22 21 20 19 19 18 17 16 16 15 16 16 17 18 17 16 15 15 15 15 16 16 17 18 19 18 18 17 16 15 14 13 11 9 9 9 10 11 11 11 11 11 11 11 11 12 12 12 12 13 13 13 14 15 16 16 17 17 18 17 17 17 16 15 14 13 12 12 11 10 9 7 6 5 5 5 5 4 4
24 24 24 24 23 23 22 22 21 21 20 19 19 18 17 16 16 16 17 18 18 18 17 17 16 16 16 17 18 18 19 19 19 18 17 17 16 15 13 11 10 9 10 11 11 12 12 11 11 11 11 11 12 12 12 12 13 13 14 15 16 17 17 17 17 17 17 16 15 15 14 13 12 11 11 10 9 8 7 5 5 5 5 5 4 4
24 24 24 23 23 22 22 21 21 21 20 19 19 18 17 16 16 17 18 19 19 19 19 18 18 18 18 18 19 19 20 20 20 19 18 17 16 15 13 12 11 10 11 11 12 12 12 11 11 11 11 11 12 12 12 13 13 14 15 15 16 16 16 16 16 16 15 14 14 13 12 12 11 10 9 9 8 7 6 6 5 5 5 5 4 4
24 23 23 23 22 22 22 22 22 21 20 19 18 18 17 17 17 18 19 20 20 20 20 20 19 19 20 20 20 21 21 21 21 20 19 18 16 15 13 12 11 11 11 12 12 12 12 12 11 11 11 11 11 12 12 12 13 14 14 15 15 15 15 14 14 13 13 12 12 11 11 10 10 9 8 8 8 7 7 6 6 5 5 5 5 5
24 23 23 23 23 23 23 23 22 21 20 19 19 19 18 18 19 19 20 20 21 22 22 21 21 21 21 22 22 22 22 22 22 20 19 18 16 15 13 12 11 12 12 12 12 12 12 12 11 11 11 11 11 11 12 12 13 13 13 13 13 12 12 12 11 11 11 10 10 10 9 9 9 8 8 8 8 7 7 6 6 6 6 6 6 6
24 24 23 23 23 24 24 24 23 23 22 21 21 21 20 20 20 20 21 21 22 22 22 22 22 22 23 23 24 24 24 23 22 21 19 18 16 15 13 12 12 12 13 12 13 13 12 12 12 11 11 11 11 11 12 12 12 12 12 11 11 10 10 10 9 9 9 9 9 9 9 8 8 8 8 8 8 7 7 7 6 6 6 6 7 8
24 24 24 24 24 24 25 25 24 24 24 23 23 22 21 20 20 20 21 21 22 22 23 22 22 23 24 24 25 25 25 24 22 21 19 18 16 15 13 12 13 13 13 13 13 13 12 12 12 11 11 11 11 11 11 11 11 11 10 10 9 9 8 8 8 8 8 8 8 8 8 8 8 8 8 8 8 8 7 7 7 7 7 7 7 9
25 25 24 24 25 25 26 26 26 26 25 25 23 21 20 19 19 20 21 21 22 23 23 22 23 23 24 25 25 25 25 24 23 21 20 19 17 15 14 14 14 14 14 13 13 13 13 12 12 11 11 10 10 10 11 11 10 10 9 9 8 8 7 7 7 7 7 8 8 8 8 8 8 8 8 8 8 8 7 7 7 7 7 7 8 9
26 25 26 26 26 26 26 26 26 26 25 24 22 20 19 19 20 20 21 22 23 23 23 23 24 24 25 26 26 25 25 24 23 22 21 20 19 17 16 16 15 15 15 14 14 13 13 12 12 11 11 10 10 10 10 10 10 9 9 8 7 7 7 7 7 7 7 8 8 8 8 8 8 8 8 8 8 8 7 7 7 7 7 7 8 9
26 26 26 26 26 26 26 26 25 24 23 22 21 20 20 20 21 21 22 23 23 24 24 25 25 26 27 27 27 26 25 24 23 23 22 21 20 19 17 17 17 16 15 15 14 14 13 13 12 11 11 10 10 10 10 9 9 9 8 8 7 7 7 7 7 7 7 8 8 8 8 8 8 8 8 8 8 7 7 7 7 8 8 8 8 9
26 26 26 26 26 26 26 25 24 22 22 21 21 21 21 21 22 22 23 23 24 25 25 26 28 29 29 29 29 28 27 25 24 23 22 22 21 19 18 18 18 17 16 15 14 14 14 13 12 11 11 10 10 10 9 9 9 8 8 8 7 7 7 7 7 8 8 8 8 8 8 8 8 8 8 8 7 7 7 7 8 8 8 8 8 8
25 25 25 25 25 25 24 24 23 22 22 22 22 22 22 22 22 23 24 25 25 25 26 27 28 29 30 31 31 29 27 26 24 23 23 23 22 20 19 18 18 18 17 16 15 14 14 13 13 12 11 10 10 10 9 9 9 8 8 8 8 7 8 8 8 8 8 8 8 8 8 8 8 8 8 8 8 7 8 8 8 8 8 8 7 8
25 25 24 24 23 23 23 23 23 23 23 23 23 23 23 23 24 25 25 26 26 26 26 26 27 28 29 30 30 28 26 25 24 23 23 23 22 21 20 19 18 18 17 16 15 15 14 14 13 12 11 10 10 9 9 9 9 8 8 8 8 8 8 8 8 8 8 8 8 8 8 8 8 8 8 8 8 8 8 8 8 8 8 7 7 7
24 24 24 23 23 23 23 24 24 24 24 23 23 23 24 25 25 26 26 26 26 25 25 24 25 25 26 27 27 27 25 24 23 24 24 23 23 22 21 20 19 19 18 16 15 15 14 14 13 12 11 11 10 9 9 9 9 8 8 8 8 8 8 8 8 8 8 8 8 8 8 8 8 8 8 8 8 8 8 8 8 8 8 7 7 7
24 24 23 23 22 23 24 25 25 24 24 23 23 23 24 24 25 26 26 26 25 25 24 23 24 25 25 26 26 25 24 23 24 24 24 23 23 22 21 21 20 19 18 17 16 15 14 14 13 12 11 11 10 10 9 9 9 9 8 8 8 8 8 8 8 8 8 8 8 8 8 9 9 9 8 8 8 8 8 8 8 8 8 7 7 7
23 23 22 23 23 23 24 25 24 24 23 22 22 22 22 22 23 24 24 24 24 23 23 24 24 25 25 25 24 23 22 22 23 23 23 24 24 23 22 21 20 20 18 17 16 15 15 14 13 13 12 11 10 10 10 9 9 9 9 9 9 9 9 9 9 9 9 9 9 9 9 9 9 9 9 9 8 8 8 8 8 8 8 8 7 7
22 22 22 23 23 23 23 23 23 23 22 21 20 19 19 19 19 19 20 20 21 22 23 24 24 25 25 24 23 22 22 21 21 21 22 24 24 23 21 20 20 19 18 17 16 15 15 14 14 13 12 11 11 10 10 10 9 9 9 9 9 9 9 9 9 9 9 9 9 9 9 9 9 9 9 9 9 8 8 8 8 8 8 8 7 7
19 20 20 21 21 22 22 22 22 21 20 19 18 17 17 16 16 16 16 17 19 20 21 22 23 24 25 24 24 23 22 22 21 21 22 22 22 21 20 20 20 19 18 17 16 15 15 14 14 13 12 11 11 10 10 10 10 9 9 9 9 9 10 10 10 10 10 10 10 10 10 10 9 9 9 9 9 8 8 8 8 8 7 7 7 7
17 17 17 17 18 18 19 20 20 20 19 18 18 17 16 15 15 15 16 17 18 19 20 21 23 25 25 25 25 24 23 22 22 21 21 21 21 20 20 19 19 18 18 16 16 15 15 14 14 13 13 12 11 11 10 10 10 9 9 9 10 10 10 10 10 10 10 10 10 10 10 10 9 9 9 9 9 9 8 8 8 8 8 7 7 7
14 14 13 13 13 15 17 18 19 20 19 19 18 17 16 16 16 16 17 19 20 20 21 22 24 25 26 26 25 25 23 22 22 22 21 21 20 19 19 19 18 18 17 16 16 15 15 14 14 13 13 12 11 11 11 10 10 10 10 10 10 10 11 11 11 10 10 10 10 10 10 10 9 9 9 9 9 9 9 8 8 8 8 8 7 7
12 11 11 11 12 14 16 18 20 20 20 19 18 17 17 17 17 18 19 20 21 21 21 22 24 25 26 26 26 25 24 23 22 22 22 21 19 19 19 19 18 18 17 16 16 16 15 15 14 13 13 12 11 11 11 11 10 10 10 11 11 11 11 11 11 11 11 11 10 10 10 10 9 9 9 9 9 9 9 9 8 8 8 8 8 7
11 11 11 11 13 15 17 18 19 20 20 19 18 18 17 18 18 19 20 21 20 20 21 22 24 25 26 26 25 24 24 23 23 23 22 21 20 19 19 18 18 18 17 17 16 16 16 15 14 13 13 12 11 11 11 11 11 11 11 11 11 12 12 12 11 11 11 11 10 10 10 10 9 9 9 9 9 8 8 8 8 8 8 8 8 7
11 11 11 13 14 15 17 18 19 20 20 19 19 19 19 19 19 20 20 20 19 20 21 22 23 24 25 24 24 24 24 24 24 23 22 21 20 20 19 19 18 18 18 17 17 16 16 16 15 14 13 12 12 12 12 12 11 11 12 12 12 12 12 12 12 12 11 11 11 10 10 10 9 9 9 9 9 8 8 8 8 8 8 8 7 7
12 12 13 14 15 16 17 18 19 19 20 20 19 19 19 19 19 19 19 19 19 20 21 22 23 23 23 23 24 25 25 25 24 24 23 21 21 20 20 20 19 19 18 17 17 17 17 16 15 14 13 13 13 12 12 12 12 12 12 12 13 13 12 12 12 12 11 11 11 10 10 9 9 9 9 9 8 8 8 8 8 8 7 7 7 7
13 14 15 15 16 16 17 18 18 19 19 19 20 19 19 19 19 19 19 18 19 19 20 22 23 23 23 23 25 26 26 25 24 23 23 22 21 21 21 20 19 19 18 17 17 17 17 16 16 15 14 13 13 13 13 13 12 12 13 13 13 13 13 12 12 12 11 11 11 10 10 9 9 9 9 8 8 8 8 8 8 7 7 7 7 7
13 14 14 15 15 16 16 17 18 18 19 19 19 18 18 18 18 18 18 18 18 19 19 21 22 22 21 22 23 24 23 22 22 23 22 22 21 21 20 20 19 18 18 17 17 17 16 16 16 15 14 14 14 14 13 13 13 13 13 13 13 13 13 12 12 12 11 11 11 10 10 10 9 9 9 8 8 8 8 8 8 7 7 7 6 6
14 14 14 14 15 15 16 16 17 17 17 17 17 17 17 17 17 17 17 17 17 18 19 20 21 21 20 20 20 20 19 19 21 21 21 21 21 21 20 20 19 18 18 18 18 18 17 17 16 14 14 14 14 14 14 14 13 13 13 13 13 13 13 12 12 12 11 11 11 10 10 10 9 9 9 9 8 8 8 8 8 7 7 7 6 6
14 14 14 14 15 15 15 16 16 16 16 16 16 16 16 16 16 16 16 16 16 17 18 19 20 19 19 19 18 17 16 17 19 20 20 20 20 20 20 20 19 19 18 18 18 18 18 17 15 14 14 14 15 15 14 14 14 14 14 14 13 13 13 12 12 12 11 11 11 10 10 10 10 9 9 9 9 9 8 8 8 8 7 7 7 7
15 15 15 15 15 15 15 15 16 16 15 15 15 15 16 16 16 16 16 15 16 16 17 17 18 18 17 17 16 15 14 15 17 19 19 19 19 19 20 19 19 19 19 18 18 18 17 16 15 14 14 14 15 15 15 15 14 14 14 14 14 14 13 13 12 12 12 11 11 11 10 10 10 10 9 9 9 9 9 9 8 8 8 8 8 7
15 15 15 15 15 15 15 15 15 15 15 15 15 16 16 16 16 16 16 15 15 16 16 16 16 16 16 15 14 12 11 13 15 17 18 18 18 18 19 19 18 18 18 18 18 18 17 16 15 15 14 15 15 16 16 15 15 15 15 15 15 14 14 13 13 13 12 12 12 11 11 11 10 10 10 10 10 9 9 9 9 9 8 8 8 8
16 16 16 15 15 15 16 15 15 15 15 15 15 15 16 16 16 16 16 16 16 16 15 15 15 15 14 14 13 12 12 13 14 15 16 16 17 18 18 18 18 18 18 18 18 17 16 16 15 15 15 15 16 16 16 16 15 15 15 15 15 15 15 14 14 13 13 13 12 12 12 11 11 11 10 10 10 10 10 10 9 9 9 9 8 8
16 16 16 16 16 16 16 16 15 15 15 15 15 15 16 16 16 17 17 17 16 16 16 15 15 15 15 14 14 14 14 14 15 15 15 16 17 17 18 18 18 18 18 17 17 17 16 16 16 16 16 16 16 15 15 15 15 15 15 15 15 15 15 15 14 14 14 13 13 13 12 12 12 11 11 11 11 11 10 10 10 10 9 9 9 9
17 16 16 16 16 16 16 16 15 15 15 15 15 16 16 16 17 17 17 17 17 17 16 16 16 16 16 15 15 15 16 16 16 16 16 16 17 17 18 18 18 18 18 17 17 17 16 16 15 15 15 15 15 15 15 15 15 15 15 15 15 15 15 15 15 14 14 14 13 13 13 13 12 12 12 12 11 11 11 11 10 10 10 10 10 10
17 16 16 16 16 16 16 15 15 15 15 15 16 16 16 17 17 17 18 18 18 18 17 17 17 17 17 16 16 16 16 16 16 16 16 17 17 17 17 17 17 17 18 18 18 17 17 16 15 15 15 15 15 15 15 15 15 15 15 15 15 15 15 15 15 14 14 14 14 13 13 13 13 13 13 12 12 12 11 11 11 11 11 10 10 10
17 17 17 16 16 16 16 15 15 15 15 15 16 17 17 17 17 18 18 18 18 19 19 19 19 18 18 17 17 17 17 17 17 17 17 17 17 17 17 17 17 17 18 18 18 17 17 16 16 16 16 16 16 15 15 15 15 15 15 15 14 14 14 14 14 14 14 14 14 14 13 13 13 13 13 13 12 12 12 12 11 11 11 11 11 11
17 17 17 17 16 16 15 14 14 15 15 16 16 17 17 17 18 18 18 18 19 19 19 19 19 19 18 18 18 18 18 18 18 18 18 18 18 17 17 17 17 18 18 18 18 18 17 17 17 17 17 17 16 16 16 15 15 15 15 14 14 14 14 14 14 14 14 14 14 14 14 13 13 13 13 13 13 13 12 12 12 12 12 12 12 12
18 18 17 17 16 15 14 14 14 15 16 16 16 17 17 17 17 18 18 19 19 19 19 19 19 19 19 19 19 19 19 19 19 19 19 18 18 17 17 17 18 18 18 18 18 18 18 17 17 17 17 16 16 15 15 15 15 15 15 14 14 14 14 14 14 14 14 14 14 14 14 14 14 14 13 13 13 13 13 13 12 12 12 12 12 12
18 18 17 16 15 15 14 14 15 15 16 16 16 17 17 17 18 18 18 19 19 19 20 20 20 19 19 19 19 19 19 19 20 20 19 19 18 18 17 18 18 19 19 19 19 18 18 18 18 18 17 16 15 15 15 15 15 15 15 15 14 14 14 14 14 14 14 14 14 14 14 14 14 14 14 14 13 13 13 13 13 13 13 13 13 12
18 18 17 16 15 15 15 15 15 15 16 16 16 17 17 18 18 19 19 19 19 20 20 20 20 20 20 20 20 20 20 20 20 20 20 19 18 18 18 18 19 19 19 19 19 19 18 18 18 17 16 16 15 15 14 14 15 15 15 15 15 14 14 14 14 14 14 14 15 14 14 14 14 14 14 14 13 13 13 13 13 13 13 13 13 13
18 17 17 16 15 15 15 15 16 16 16 16 17 17 18 18 18 19 19 19 20 20 20 20 20 20 20 20 20 20 20 20 20 20 20 19 19 19 19 19 19 20 20 20 19 19 19 18 17 17 16 16 15 15 14 15 15 15 15 15 15 15 15 15 15 15 15 15 15 15 15 14 14 14 14 14 14 14 14 14 14 14 14 13 13 13
18 17 16 16 15 15 15 16 16 17 17 17 17 18 18 19 19 19 19 20 20 20 20 20 20 21 20 20 20 20 20 20 20 20 20 20 20 20 20 20 20 20 20 20 19 19 19 18 18 17 16 16 15 14 14 14 15 15 15 15 15 15 15 15 14 14 15 15 15 15 15 14 14 14 14 14 14 14 14 14 14 14 14 14 13 13
17 16 16 15 15 16 16 17 17 17 18 18 18 18 19 19 19 20 20 20 20 20 20 21 21 21 20 20 20 20 20 20 20 20 20 20 20 20 21 21 21 21 20 20 19 19 19 18 18 17 16 16 15 14 14 14 15 15 15 15 15 15 15 14 14 14 14 15 15 15 14 14 14 14 14 14 14 14 14 14 14 14 14 14 14 14
17 16 15 15 15 16 17 18 18 18 18 18 18 19 19 19 20 20 20 20 20 20 21 21 21 21 20 20 20 20 20 20 20 20 20 20 20 21 21 21 21 21 20 20 19 19 18 18 17 17 17 16 16 15 15 15 15 15 16 16 15 15 15 14 14 14 14 14 14 14 14 14 14 14 14 14 14 14 14 14 14 14 14 14 14 14
17 16 16 15 16 16 17 18 18 18 19 19 19 19 19 20 20 20 20 20 20 20 20 20 20 20 20 20 20 21 21 21 21 21 21 21 21 21 21 21 21 21 20 20 19 19 18 18 17 17 17 16 16 16 16 15 16 16 16 15 15 15 14 14 14 14 13 13 13 13 14 14 14 14 14 14 14 14 14 14 14 14 14 14 14 14
17 16 16 16 16 17 17 18 19 19 19 19 19 19 20 20 21 21 21 21 20 20 20 20 20 20 20 20 20 21 21 21 21 21 22 21 21 21 21 21 21 21 21 20 20 19 19 18 18 17 17 17 16 16 16 16 16 16 15 15 14 14 14 14 14 13 13 13 13 13 13 13 14 14 14 14 14 14 14 14 13 14 14 14 15 15
Wind_Direction
247 249 250 251 253 255 258 260 262 263 264 266 266 267 268 269 269 269 267 264 262 263 264 266 267 267 265 264 265 266 266 267 267 267 269 269 267 264 260 257 253 250 249 249 252 255 258 262 265 267 267 265 262 258 255 253 252 252 253 253 253 253 255 257 260 264 267 270 274 278 284 290 294 295 296 297 298 300 302 303 302 299 295 291 286 281
248 249 249 250 251 253 256 259 261 261 262 263 264 265 265 267 268 269 269 268 266 265 264 264 264 263 262 262 262 263 263 263 265 267 269 269 267 263 260 258 256 254 253 254 257 260 264 268 271 272 271 268 264 260 256 254 253 253 253 253 254 254 255 256 259 261 265 269 274 279 284 287 289 290 291 293 295 297 300 300 299 295 290 285 280 274
248 248 249 250 251 253 255 258 259 260 260 260 261 260 261 262 264 266 268 269 268 266 264 263 262 261 260 260 260 260 260 261 263 266 268 268 266 263 261 260 259 258 258 259 261 265 269 273 275 276 274 269 264 259 256 253 252 252 251 252 253 254 256 258 261 264 268 272 276 280 283 285 286 288 289 291 293 297 299 298 294 289 283 278 272 268
247 248 250 251 252 254 255 257 258 259 258 257 256 255 256 259 262 264 266 268 267 265 262 262 260 259 258 258 257 257 258 259 261 264 266 265 264 263 262 262 261 262 262 264 266 269 273 276 278 278 274 268 262 257 254 252 250 250 250 251 253 255 258 261 264 267 271 275 277 279 281 282 284 286 288 291 294 296 296 293 288 280 273 267 262 258
247 248 250 251 252 253 256 257 258 258 257 255 252 252 253 257 260 263 265 266 264 261 259 259 259 259 258 256 255 254 255 256 259 261 262 262 263 263 264 263 264 265 266 268 270 273 276 279 280 278 273 266 260 255 251 249 248 249 250 252 255 258 261 264 267 270 272 274 276 277 278 279 282 284 287 290 293 294 292 286 277 267 260 254 249 246
250 250 251 252 252 253 255 256 257 256 255 252 251 250 252 254 257 260 261 262 261 258 254 253 256 257 256 254 252 251 252 253 255 257 259 260 262 263 264 265 266 268 269 271 273 275 278 280 279 276 270 264 257 253 250 249 249 250 252 255 257 260 263 265 267 269 271 272 273 274 275 277 279 282 284 287 288 288 284 276 263 251 245 241 237 232
254 254 253 253 253 254 255 255 256 255 253 250 249 249 250 251 253 254 256 258 258 256 251 248 250 253 254 252 250 249 250 251 253 255 257 259 261 263 265 266 268 270 271 272 274 275 277 278 277 272 266 259 254 251 250 249 251 252 255 258 260 262 264 265 266 267 268 268 269 270 272 274 275 277 279 280 280 278 273 262 247 237 232 227 223 218
254 255 255 254 255 256 257 256 256 255 253 250 249 249 250 249 249 249 251 253 254 252 248 243 243 246 249 249 249 249 250 252 254 255 257 259 261 263 265 267 269 270 271 272 273 275 277 277 274 268 261 255 251 249 249 250 253 255 258 261 262 263 264 264 264 264 264 264 265 266 268 270 271 271 271 270 268 265 258 247 235 225 220 216 208 199
255 256 257 257 257 257 257 257 257 256 254 253 252 251 251 249 248 247 247 247 247 246 244 241 238 238 242 245 248 249 250 252 254 255 258 259 261 263 265 268 269 270 269 270 272 274 275 275 272 266 259 254 251 250 251 253 256 259 262 263 263 263 263 262 261 261 260 260 261 262 263 264 265 264 262 259 254 250 243 234 224 217 212 204 194 185
259 258 259 259 259 259 258 258 259 258 256 254 253 252 251 249 247 246 246 244 243 242 240 238 236 235 236 240 245 247 249 250 252 254 256 259 262 264 266 268 268 267 266 268 270 273 274 273 269 264 258 255 254 255 258 260 263 265 265 264 263 262 260 258 257 256 255 255 256 256 257 257 256 254 251 246 241 237 231 224 217 211 205 198 188 177
259 259 259 258 259 260 260 260 261 260 257 254 252 250 248 245 244 244 244 243 242 240 238 236 234 233 234 236 240 244 248 249 251 253 255 258 261 264 265 265 265 264 264 266 269 271 272 270 266 262 259 258 260 263 266 269 270 269 267 265 261 258 256 253 252 251 250 250 250 250 249 248 247 243 239 234 230 226 222 216 210 205 201 194 184 172
258 258 257 257 257 258 259 260 261 261 258 254 250 247 244 242 241 241 242 242 242 240 237 236 235 234 234 235 237 241 246 248 250 253 257 259 261 262 263 262 261 261 262 265 268 270 270 268 264 261 259 261 265 269 272 274 273 271 267 262 257 253 250 248 246 245 244 243 242 241 240 239 236 233 228 225 222 218 215 210 206 202 197 192 182 169
256 256 257 257 257 257 257 258 258 257 256 253 251 248 246 245 242 240 240 241 241 240 239 237 237 236 236 236 237 240 244 247 250 254 257 260 261 262 261 259 259 260 262 265 268 269 268 266 263 260 260 264 268 273 274 274 272 268 263 258 252 248 245 242 240 238 237 236 235 233 232 230 228 224 220 218 215 212 209 205 202 198 196 191 182 170
253 254 255 256 256 256 256 256 254 254 255 256 257 256 255 251 246 241 239 237 237 237 237 236 236 237 239 239 239 241 243 246 249 252 254 256 258 258 257 257 258 259 262 264 267 268 267 264 262 260 262 266 271 273 274 272 268 263 258 253 247 243 239 236 234 231 230 228 227 225 224 223 221 218 215 212 210 207 204 201 198 196 195 191 184 175
253 254 255 256 258 258 257 256 255 255 258 260 260 258 254 248 244 240 237 234 233 233 232 232 233 235 237 239 241 242 243 245 248 250 252 254 254 255 255 256 257 258 260 262 265 265 265 263 261 260 263 268 271 272 271 268 264 258 253 247 242 237 233 230 227 225 223 222 220 219 218 217 215 212 210 207 205 203 199 197 195 195 193 191 188 182
256 256 257 258 260 260 260 259 258 257 258 258 256 253 248 244 241 240 238 236 235 232 229 226 227 228 232 237 240 242 242 244 246 249 251 253 254 254 254 255 257 258 259 261 262 262 262 260 259 260 264 268 271 271 268 264 259 254 248 243 237 232 228 224 222 219 217 216 215 214 213 211 209 207 205 202 200 197 195 192 191 191 192 191 190 188
258 259 260 260 260 260 260 260 259 258 256 254 252 250 247 245 243 242 241 240 238 235 230 227 224 223 226 231 236 239 240 241 243 247 250 252 253 254 254 255 257 258 259 260 259 259 258 256 256 258 262 267 269 268 265 260 255 249 244 239 233 228 223 220 217 214 212 211 210 209 208 206 204 201 199 197 195 192 189 187 187 187 188 189 190 191
260 261 261 261 260 260 261 260 258 256 254 251 249 248 248 247 246 245 244 243 241 238 234 231 228 227 227 227 232 238 241 239 241 245 248 251 252 253 254 254 256 257 258 258 257 256 254 253 253 256 260 265 267 266 261 256 250 246 241 236 230 225 220 216 212 210 207 206 205 204 202 200 197 195 194 191 189 186 183 182 182 183 184 186 188 190
262 263 263 262 262 262 262 261 258 255 253 250 249 249 249 248 248 247 246 245 244 241 238 235 233 233 233 233 237 241 244 242 242 245 247 250 251 252 253 253 254 255 257 257 256 254 252 251 252 255 259 262 264 262 258 252 247 242 237 233 227 222 217 212 208 205 202 201 200 198 196 194 192 190 187 186 183 181 179 178 178 180 181 183 185 187
263 263 264 264 264 264 264 263 261 258 256 255 254 252 251 250 249 249 248 247 245 243 240 238 237 236 237 239 241 243 244 244 243 244 246 249 250 250 251 251 252 254 255 255 254 252 250 249 251 254 258 261 261 258 254 248 243 239 234 229 224 219 214 209 205 201 198 196 194 193 190 188 186 185 183 181 180 177 176 176 176 177 180 182 184 186
261 262 263 263 263 263 263 264 263 262 261 259 256 253 252 250 249 248 248 247 245 242 239 238 237 237 238 239 240 241 242 242 241 242 245 247 248 247 248 248 250 252 253 252 250 248 247 247 249 253 256 258 257 254 250 245 240 236 231 226 221 216 211 206 201 197 194 192 190 188 186 184 183 181 180 179 178 177 176 176 177 179 181 183 186 188
259 260 261 260 259 260 261 263 264 263 261 259 256 253 252 250 249 248 248 248 246 242 237 235 234 235 236 238 239 240 241 240 240 241 244 245 244 244 244 245 247 249 250 249 247 244 243 245 248 251 254 254 253 250 246 242 238 233 228 223 217 212 208 203 199 195 192 189 187 185 183 182 181 180 179 178 178 178 178 179 180 181 183 186 189 192
254 255 254 254 254 255 257 259 259 259 259 258 257 255 254 253 253 253 252 251 248 243 239 237 236 235 236 236 236 237 236 236 237 238 241 243 242 242 242 243 245 246 247 245 243 241 240 242 246 249 251 251 249 247 243 239 235 230 225 220 214 210 205 201 196 193 190 188 186 184 183 181 180 179 179 179 179 180 180 182 183 185 187 189 192 195
250 250 250 251 251 251 252 253 254 256 257 258 258 257 255 253 252 252 252 249 246 244 241 239 236 235 235 234 233 233 233 232 232 233 235 239 241 241 240 241 242 243 243 242 240 238 238 241 244 247 249 248 245 243 239 236 232 228 222 217 211 207 202 198 195 192 190 188 186 184 183 182 181 180 180 180 180 181 183 185 187 190 191 193 195 198
251 252 252 251 250 248 248 249 251 253 255 255 255 254 252 249 246 243 240 239 239 238 236 234 232 232 232 232 232 231 232 232 231 231 232 235 237 238 237 238 239 240 240 238 237 237 238 240 243 245 246 244 241 239 236 233 230 225 220 214 209 204 200 197 194 191 189 188 187 185 184 184 183 183 182 183 183 184 185 187 190 192 195 198 200 203
251 251 251 247 244 241 242 244 247 249 251 252 252 250 249 246 242 238 236 234 233 232 231 230 230 230 231 232 231 230 230 231 231 231 231 233 234 234 234 235 235 235 235 235 234 236 237 239 241 242 243 241 238 235 233 230 226 222 217 212 207 202 198 195 193 192 190 189 188 187 186 186 185 186 185 186 186 187 188 190 191 194 197 200 203 206
246 245 242 238 234 234 236 238 241 244 246 248 248 248 246 244 240 237 234 233 232 230 228 228 228 229 229 230 230 229 229 229 230 230 231 232 232 232 232 232 232 231 230 231 232 234 236 238 239 239 239 237 234 231 229 226 222 218 214 209 205 200 197 195 193 192 191 190 190 189 188 188 188 188 189 189 190 190 191 192 194 196 199 202 205 208
241 237 234 231 230 230 232 234 237 239 242 243 244 245 243 241 239 238 237 236 234 232 229 229 228 228 228 228 228 228 228 228 228 229 231 230 230 230 231 230 229 227 226 227 230 233 235 236 236 236 235 233 230 228 225 222 219 215 211 207 203 199 196 194 193 192 192 191 191 190 190 190 191 191 192 193 193 194 195 196 198 200 202 204 206 208
234 230 228 227 228 229 231 233 235 237 238 239 240 241 240 239 238 239 239 238 236 234 232 231 231 230 229 228 228 227 226 226 227 228 229 228 228 229 229 228 226 225 224 225 229 233 235 235 234 232 230 229 226 224 222 219 216 212 209 205 202 198 196 194 193 193 193 192 192 192 192 193 194 194 195 196 197 199 200 201 202 204 205 206 207 209
228 227 226 226 227 229 231 233 234 235 236 236 237 237 238 237 236 236 236 236 235 234 233 232 232 231 230 228 226 225 225 225 225 226 227 226 225 226 226 225 224 224 224 225 228 231 234 233 231 228 225 224 223 221 219 216 213 210 207 204 201 198 196 195 194 194 194 194 194 195 195 196 197 198 199 201 202 203 204 205 206 208 208 208 209 210
225 225 226 227 228 229 231 233 234 234 234 234 235 235 236 235 235 234 233 232 231 231 232 233 233 232 231 228 226 224 224 223 223 225 225 224 225 226 225 223 223 224 225 226 228 230 233 233 229 224 221 220 219 218 217 215 212 209 206 203 201 198 197 196 195 196 196 196 196 197 198 199 200 202 203 204 205 207 208 210 210 212 212 212 211 210
224 225 226 228 228 229 230 232 233 233 234 234 234 235 235 235 234 234 232 231 228 227 228 231 232 233 232 231 230 230 229 225 225 226 225 224 224 225 225 223 223 223 226 228 228 230 234 233 228 221 218 216 216 216 215 213 210 207 205 203 201 199 199 198 198 198 198 198 199 200 201 203 204 206 207 207 209 210 211 213 214 216 216 215 215 214
223 224 225 227 228 228 230 231 232 233 233 234 235 235 235 235 234 233 232 230 228 226 225 226 228 230 230 231 232 234 233 229 227 227 227 224 222 222 223 222 222 223 225 227 228 229 230 232 229 222 216 214 214 214 213 211 209 206 204 202 201 201 201 200 200 200 201 201 202 204 205 206 207 209 209 211 212 213 214 215 217 218 220 219 219 219
222 223 224 225 227 228 229 230 231 232 232 233 233 233 233 233 232 231 230 228 227 226 225 225 225 225 226 227 227 228 228 226 226 226 227 225 223 221 221 221 221 222 224 226 227 228 228 228 227 222 216 213 212 213 212 210 208 205 203 201 201 201 202 202 202 203 204 204 205 207 209 210 211 212 213 213 215 215 217 218 219 221 222 223 224 223
222 223 224 225 225 227 228 230 231 231 231 231 230 231 230 230 229 228 227 226 225 225 225 225 225 225 225 225 225 225 224 223 223 224 225 224 222 221 222 222 222 223 224 226 227 227 225 224 222 220 216 212 211 211 211 209 207 204 203 201 201 202 203 203 204 205 206 208 209 211 212 213 214 215 216 216 217 218 220 221 223 225 226 227 228 228
223 224 224 225 225 226 227 229 230 230 230 229 229 229 228 228 227 227 226 225 224 224 224 224 224 224 225 225 225 225 225 225 225 224 224 222 221 220 221 222 223 224 225 227 227 226 223 221 219 216 215 212 210 209 208 208 206 204 203 202 201 202 203 204 205 206 208 210 212 214 215 216 217 218 218 219 220 221 222 224 226 228 230 231 232 234
224 225 226 226 226 227 228 228 229 229 229 228 228 228 228 227 227 227 226 225 224 223 223 222 222 223 222 221 220 219 220 222 224 224 223 220 219 218 219 221 222 223 225 226 227 226 223 220 217 215 213 212 210 208 207 207 206 205 203 203 202 203 204 205 206 207 209 210 213 214 216 218 218 219 220 221 222 223 225 227 229 231 233 235 236 237
225 226 227 227 228 228 228 228 228 228 228 228 228 228 228 228 228 227 227 226 225 223 222 221 221 221 220 219 217 215 216 218 221 222 221 219 217 217 216 217 218 220 222 224 226 225 223 220 216 214 212 211 209 207 207 207 207 205 204 204 204 205 206 207 209 210 211 212 213 215 217 218 219 220 221 222 224 225 226 229 231 233 235 237 239 241
226 227 228 229 229 229 229 229 228 228 228 227 228 228 229 229 229 228 227 226 224 223 222 221 220 220 220 218 217 217 218 219 219 220 219 218 217 215 214 213 214 216 218 220 222 222 221 219 217 214 212 210 208 206 206 207 207 207 206 206 206 207 208 210 211 213 213 214 215 216 216 218 219 220 221 223 225 226 227 229 231 233 236 238 241 243
228 229 230 231 231 231 230 230 229 228 228 227 227 228 229 228 228 228 227 226 224 223 221 221 221 221 220 220 219 219 219 220 219 219 218 217 216 215 213 211 211 213 215 218 219 220 219 217 214 213 213 212 210 207 206 206 207 207 208 208 208 208 209 211 214 215 216 217 217 217 218 219 220 221 222 224 225 226 228 230 232 235 237 238 240 243
229 230 231 231 232 232 231 230 229 228 227 227 227 227 228 227 227 226 225 225 223 222 222 222 222 221 221 221 221 220 220 219 219 218 217 216 215 213 211 210 210 211 214 216 218 218 217 215 211 209 209 209 208 206 207 207 208 209 210 210 210 210 211 214 216 217 219 220 220 220 220 221 222 223 224 225 227 228 230 231 232 235 238 240 242 243
230 231 232 233 233 233 232 231 229 228 227 227 227 227 227 227 227 226 226 224 222 221 221 221 221 220 220 220 220 220 219 219 218 217 216 215 213 211 209 208 208 210 212 214 216 216 215 213 211 209 208 207 205 203 204 207 209 211 211 211 211 212 214 216 217 219 220 221 222 223 223 224 225 226 227 227 228 229 231 233 234 236 238 240 243 244
230 232 233 234 235 234 233 231 229 228 227 226 226 226 225 225 225 225 225 225 224 223 223 222 222 221 219 219 219 218 218 217 217 216 215 213 212 210 208 207 208 209 211 212 213 213 213 212 211 210 210 208 205 203 203 206 209 212 212 212 213 213 215 217 219 220 222 223 224 225 225 225 226 227 228 229 230 231 232 234 235 237 238 240 242 244
231 232 233 234 234 234 232 231 230 228 227 226 224 223 223 222 222 223 223 223 224 224 224 224 223 222 220 220 219 218 217 216 215 215 213 212 210 208 207 207 207 208 209 210 211 211 210 210 210 210 210 208 207 205 204 206 209 212 213 215 215 216 217 218 220 222 223 224 225 226 226 227 227 229 230 231 232 233 234 235 236 238 239 241 242 243
231 232 232 233 233 233 232 230 229 228 227 226 224 223 221 221 221 221 221 221 221 222 223 223 222 221 220 219 218 217 216 215 214 213 212 210 208 207 206 206 207 207 208 208 208 208 209 210 210 210 209 209 208 207 206 207 209 212 215 216 216 217 217 218 219 221 223 224 225 226 227 228 228 229 230 231 232 234 235 236 237 239 240 242 243 243
230 230 231 231 232 232 232 230 229 227 226 224 223 222 221 221 221 221 221 220 221 221 222 222 221 221 220 218 217 216 215 214 212 211 210 208 207 205 205 205 206 206 206 206 206 206 206 208 210 210 210 210 209 209 208 208 209 211 214 216 217 218 218 217 218 219 221 224 226 227 228 229 230 230 231 232 233 234 236 237 238 240 241 243 244 244
229 229 230 231 232 232 231 230 228 227 225 223 222 220 220 220 220 220 220 220 220 221 221 221 220 220 219 218 216 215 214 213 211 210 208 207 205 205 204 205 205 205 205 205 205 205 205 206 207 208 209 210 210 210 209 209 209 211 214 216 218 219 219 218 217 218 220 222 225 227 229 231 231 232 233 233 234 235 236 238 240 241 243 244 245 246
229 230 231 231 231 230 230 229 228 226 224 222 221 220 220 220 220 220 220 220 220 220 220 220 219 218 217 216 215 214 213 212 211 209 208 206 205 204 204 204 204 204 203 203 204 204 205 206 206 207 208 209 211 211 211 211 211 212 213 215 218 220 221 220 219 218 219 221 224 227 230 231 232 233 234 235 236 236 237 238 240 242 244 246 247 247
229 230 231 231 231 230 229 229 228 226 224 222 220 220 220 220 219 219 219 219 220 220 220 220 219 217 215 213 212 211 210 209 209 209 208 207 206 204 204 203 203 202 202 202 202 203 204 206 206 207 207 208 210 211 212 213 213 213 213 214 216 219 221 222 222 221 220 221 223 225 228 231 233 234 236 237 238 238 239 239 241 243 245 247 248 249
227 228 230 231 231 231 230 229 228 226 224 222 220 219 219 220 219 219 218 218 219 219 219 219 218 216 214 211 210 209 208 207 206 206 206 206 205 205 204 203 202 201 201 200 201 202 203 205 206 206 206 207 208 210 211 212 213 214 214 215 216 217 220 223 225 226 225 224 224 225 227 230 233 235 237 238 239 240 241 241 241 243 245 247 249 250
225 227 229 231 231 231 230 230 229 227 224 222 220 219 220 220 220 219 218 217 217 217 217 217 217 215 213 211 209 208 207 206 205 205 205 204 204 204 204 203 202 201 200 199 200 200 202 204 205 206 207 207 207 208 211 212 214 216 218 217 217 218 221 224 227 229 229 229 228 228 229 231 233 235 237 239 241 242 242 242 241 242 244 246 247 249
Height
1517 1517 1518 1518 1518 1518 1517 1518 1518 1518 1519 1519 1520 1520 1520 1520 1520 1521 1521 1521 1521 1522 1522 1522 1522 1523 1523 1523 1523 1523 1523 1523 1523 1522 1523 1523 1523 1524 1524 1525 1525 1525 1525 1526 1526 1526 1527 1527 1528 1528 1528 1528 1528 1528 1528 1528 1528 1529 1529 1529 1529 1530 1530 1530 1530 1530 1530 1530 1530 1531 1531 1531 1531 1531 1532 1532 1532 1532 1532 1532 1532 1531 1531 1531 1531 1531
1515 1516 1516 1516 1516 1516 1516 1516 1516 1517 1517 1517 1518 1518 1518 1519 1519 1519 1519 1519 1520 1520 1521 1521 1521 1521 1522 1522 1522 1522 1522 1522 1521 1521 1521 1522 1522 1523 1523 1523 1524 1524 1524 1525 1525 1525 1526 1526 1526 1526 1526 1526 1527 1527 1527 1527 1527 1527 1527 1528 1528 1528 1529 1529 1529 1529 1529 1529 1529 1530 1530 1530 1530 1530 1531 1531 1531 1531 1531 1531 1531 1531 1530 1530 1531 1531
1513 1513 1514 1514 1514 1514 1514 1514 1515 1515 1516 1516 1516 1516 1517 1517 1517 1517 1517 1518 1518 1519 1519 1519 1520 1520 1521 1521 1521 1521 1521 1521 1520 1520 1520 1521 1521 1521 1522 1522 1523 1523 1523 1523 1524 1524 1525 1525 1525 1525 1525 1525 1525 1525 1525 1526 1526 1526 1526 1526 1527 1527 1527 1528 1528 1528 1528 1528 1528 1529 1529 1529 1529 1529 1529 1529 1530 1530 1530 1530 1530 1530 1530 1530 1530 1530
1511 1511 1512 1512 1512 1512 1512 1512 1513 1513 1514 1514 1515 1515 1515 1516 1516 1516 1516 1516 1517 1517 1517 1518 1518 1519 1519 1520 1520 1520 1520 1519 1519 1519 1519 1520 1520 1520 1521 1521 1522 1522 1522 1522 1522 1523 1523 1523 1524 1524 1524 1524 1524 1524 1524 1524 1525 1525 1525 1525 1526 1526 1526 1526 1527 1527 1527 1527 1527 1527 1527 1528 1528 1528 1528 1528 1528 1528 1529 1529 1529 1529 1529 1529 1529 1529
1509 1510 1510 1510 1511 1510 1510 1511 1511 1511 1512 1512 1513 1513 1514 1514 1514 1514 1515 1515 1515 1516 1516 1516 1517 1518 1518 1518 1519 1519 1519 1518 1518 1518 1518 1518 1519 1519 1520 1520 1521 1521 1521 1521 1521 1522 1522 1522 1522 1522 1522 1522 1523 1523 1523 1523 1523 1524 1524 1524 1525 1525 1525 1525 1526 1526 1526 1526 1526 1526 1526 1526 1526 1526 1526 1526 1527 1527 1528 1528 1528 1528 1528 1528 1529 1529
1507 1508 1508 1508 1509 1508 1508 1509 1509 1510 1510 1511 1511 1511 1512 1512 1513 1513 1513 1514 1514 1514 1515 1515 1516 1516 1517 1517 1517 1517 1517 1517 1517 1517 1517 1517 1517 1518 1518 1519 1519 1520 1520 1520 1520 1521 1521 1521 1521 1521 1521 1521 1521 1521 1522 1522 1522 1523 1523 1523 1523 1524 1524 1524 1524 1525 1525 1525 1525 1525 1525 1525 1525 1525 1526 1526 1526 1526 1527 1527 1527 1527 1527 1528 1528 1528
1505 1506 1506 1506 1506 1506 1507 1507 1507 1508 1508 1509 1509 1510 1510 1511 1511 1512 1512 1512 1513 1513 1513 1514 1515 1515 1516 1516 1516 1516 1516 1516 1516 1516 1516 1516 1516 1517 1517 1518 1518 1519 1519 1519 1519 1519 1520 1520 1520 1520 1520 1520 1520 1521 1521 1521 1521 1521 1522 1522 1522 1522 1523 1523 1523 1523 1523 1523 1523 1524 1524 1524 1524 1524 1525 1525 1525 1526 1526 1526 1526 1527 1527 1527 1528 1528
1503 1504 1504 1504 1504 1505 1505 1505 1505 1506 1506 1507 1507 1508 1509 1509 1510 1510 1511 1511 1511 1512 1512 1513 1513 1514 1514 1515 1515 1515 1514 1514 1514 1514 1515 1515 1515 1516 1516 1517 1517 1518 1518 1518 1518 1518 1519 1519 1519 1519 1519 1519 1519 1520 1520 1520 1520 1521 1521 1521 1521 1521 1521 1521 1522 1522 1522 1522 1522 1522 1522 1522 1523 1523 1524 1524 1524 1525 1525 1526 1526 1526 1526 1527 1527 1527
1501 1501 1501 1502 1502 1502 1502 1503 1503 1504 1504 1505 1506 1506 1507 1507 1508 1509 1509 1510 1510 1510 1511 1511 1512 1512 1512 1513 1513 1513 1513 1513 1513 1513 1513 1514 1514 1515 1515 1516 1516 1517 1517 1517 1517 1517 1517 1518 1518 1518 1518 1518 1518 1518 1519 1519 1519 1519 1519 1520 1520 1520 1520 1520 1520 1521 1521 1521 1521 1521 1521 1521 1522 1522 1523 1523 1524 1524 1525 1525 1525 1526 1526 1526 1527 1527
1498 1499 1499 1499 1500 1500 1500 1500 1501 1502 1503 1503 1504 1504 1505 1506 1506 1507 1507 1508 1508 1509 1509 1510 1510 1511 1511 1511 1511 1511 1511 1511 1511 1512 1512 1512 1513 1514 1514 1515 1515 1516 1516 1516 1516 1516 1516 1516 1517 1517 1517 1517 1517 1517 1517 1518 1518 1518 1518 1518 1518 1518 1518 1519 1519 1519 1519 1519 1520 1520 1520 1521 1521 1521 1522 1522 1523 1523 1524 1524 1525 1525 1525 1526 1526 1527
1496 1496 1497 1497 1497 1498 1498 1498 1499 1500 1501 1501 1502 1502 1503 1503 1504 1505 1506 1506 1506 1507 1507 1508 1508 1509 1509 1509 1509 1509 1509 1510 1510 1510 1511 1511 1512 1513 1513 1514 1514 1514 1514 1515 1515 1515 1515 1516 1516 1516 1516 1516 1516 1516 1516 1516 1516 1516 1516 1516 1517 1517 1517 1517 1517 1518 1518 1518 1518 1519 1519 1520 1520 1521 1521 1522 1522 1523 1523 1524 1524 1524 1525 1525 1526 1526
1494 1494 1495 1495 1495 1496 1496 1496 1496 1497 1498 1499 1499 1500 1500 1501 1502 1503 1504 1504 1505 1505 1506 1506 1507 1507 1507 1507 1507 1507 1507 1508 1508 1509 1509 1510 1511 1511 1512 1513 1513 1513 1513 1513 1514 1514 1514 1514 1515 1515 1515 1515 1515 1515 1515 1515 1515 1515 1515 1515 1515 1516 1516 1516 1516 1516 1517 1517 1517 1518 1518 1519 1520 1520 1521 1521 1521 1522 1522 1523 1523 1524 1524 1525 1525 1526
1491 1492 1492 1493 1493 1493 1493 1494 1494 1495 1495 1495 1496 1496 1498 1499 1500 1501 1502 1503 1503 1503 1504 1505 1505 1505 1506 1506 1506 1506 1506 1506 1507 1507 1508 1509 1509 1510 1511 1511 1511 1512 1512 1512 1512 1513 1513 1513 1513 1513 1514 1514 1514 1514 1513 1513 1514 1514 1514 1514 1514 1514 1515 1515 1515 1516 1516 1516 1517 1517 1518 1518 1519 1519 1520 1521 1521 1521 1522 1522 1523 1523 1524 1524 1525 1526
1489 1490 1490 1490 1491 1491 1491 1491 1491 1492 1492 1493 1494 1495 1496 1497 1499 1499 1500 1501 1501 1502 1503 1503 1504 1504 1504 1504 1504 1504 1504 1505 1506 1506 1506 1507 1508 1509 1509 1510 1510 1511 1511 1511 1511 1511 1512 1512 1512 1512 1512 1512 1512 1512 1512 1512 1512 1513 1513 1513 1513 1513 1514 1514 1514 1515 1515 1516 1516 1516 1517 1518 1518 1519 1519 1520 1520 1521 1521 1522 1522 1523 1523 1524 1524 1525
1486 1487 1487 1487 1488 1488 1488 1489 1489 1489 1490 1491 1492 1494 1495 1496 1496 1497 1498 1499 1499 1500 1501 1502 1502 1502 1502 1502 1502 1502 1503 1503 1504 1504 1505 1505 1506 1507 1508 1508 1509 1509 1510 1510 1510 1510 1511 1511 1511 1511 1511 1511 1511 1511 1511 1511 1511 1512 1512 1512 1512 1513 1513 1513 1514 1514 1515 1515 1516 1516 1516 1517 1518 1518 1519 1519 1520 1520 1521 1521 1522 1522 1523 1523 1524 1525
1484 1484 1485 1485 1485 1486 1486 1486 1487 1488 1489 1490 1491 1491 1492 1493 1494 1495 1496 1496 1497 1498 1499 1500 1501 1501 1501 1500 1500 1500 1501 1501 1502 1503 1503 1504 1505 1506 1506 1507 1507 1508 1508 1509 1509 1509 1509 1510 1510 1510 1510 1510 1510 1510 1510 1511 1511 1511 1511 1511 1512 1512 1512 1513 1513 1513 1514 1514 1515 1516 1516 1516 1517 1518 1518 1519 1519 1520 1520 1521 1521 1522 1522 1523 1524 1524
1482 1482 1482 1482 1483 1483 1483 1484 1485 1486 1487 1487 1488 1489 1490 1491 1492 1493 1494 1495 1495 1496 1497 1497 1498 1498 1498 1498 1498 1498 1499 1500 1501 1501 1502 1502 1503 1504 1505 1506 1506 1506 1507 1507 1508 1508 1508 1508 1509 1509 1509 1509 1509 1509 1509 1510 1510 1510 1510 1511 1511 1511 1512 1512 1512 1513 1513 1514 1514 1515 1516 1516 1516 1517 1518 1518 1519 1519 1520 1521 1521 1521 1522 1523 1523 1524
1479 1479 1480 1480 1480 1481 1481 1482 1483 1484 1484 1485 1486 1486 1488 1489 1490 1491 1491 1492 1493 1494 1494 1495 1495 1495 1495 1495 1495 1495 1496 1498 1499 1500 1500 1501 1501 1502 1503 1504 1504 1505 1505 1506 1506 1507 1507 1507 1508 1508 1508 1508 1508 1508 1508 1509 1509 1509 1510 1510 1510 1511 1511 1511 1512 1512 1513 1513 1514 1514 1515 1516 1516 1516 1517 1518 1518 1519 1520 1520 1521 1521 1522 1522 1523 1523
1477 1477 1477 1477 1478 1478 1479 1480 1480 1481 1482 1483 1484 1485 1486 1487 1488 1488 1489 1490 1490 1491 1492 1493 1493 1493 1493 1493 1493 1494 1495 1497 1498 1498 1499 1499 1500 1501 1502 1502 1503 1503 1504 1505 1505 1506 1506 1506 1506 1507 1507 1507 1507 1507 1507 1508 1508 1508 1509 1509 1510 1510 1511 1511 1511 1512 1512 1513 1513 1514 1515 1515 1516 1516 1517 1517 1518 1519 1519 1520 1520 1521 1521 1522 1522 1523
1474 1475 1475 1475 1476 1476 1476 1477 1477 1478 1480 1481 1482 1483 1484 1485 1485 1486 1486 1487 1488 1489 1490 1491 1491 1491 1492 1492 1492 1493 1494 1496 1497 1497 1497 1498 1499 1499 1500 1501 1501 1502 1502 1503 1504 1504 1505 1505 1505 1506 1506 1506 1506 1506 1506 1507 1507 1508 1508 1508 1509 1509 1510 1510 1511 1511 1511 1512 1513 1513 1514 1515 1515 1516 1516 1517 1518 1518 1519 1519 1520 1521 1521 1521 1522 1522
1472 1472 1473 1473 1474 1474 1474 1474 1475 1476 1477 1479 1480 1481 1481 1482 1483 1483 1484 1485 1486 1487 1488 1489 1489 1490 1490 1491 1491 1492 1493 1494 1495 1495 1496 1496 1497 1498 1499 1499 1500 1501 1501 1502 1503 1503 1503 1504 1504 1504 1505 1505 1505 1506 1506 1506 1506 1507 1507 1508 1508 1509 1509 1510 1510 1511 1511 1512 1512 1513 1514 1514 1515 1516 1516 1516 1517 1518 1518 1519 1520 1520 1521 1521 1521 1522
1470 1471 1471 1471 1472 1472 1472 1472 1473 1474 1475 1476 1477 1478 1479 1480 1480 1481 1482 1483 1484 1485 1486 1486 1487 1488 1488 1489 1490 1491 1492 1493 1494 1494 1494 1495 1496 1496 1497 1498 1499 1499 1500 1501 1501 1502 1502 1503 1503 1503 1504 1504 1504 1505 1505 1505 1506 1506 1507 1507 1508 1508 1509 1509 1510 1510 1511 1511 1512 1512 1513 1514 1514 1515 1516 1516 1517 1517 1518 1519 1519 1520 1520 1521 1521 1521
1468 1469 1469 1469 1469 1470 1470 1471 1471 1472 1473 1474 1475 1476 1477 1478 1478 1479 1480 1481 1482 1483 1484 1484 1485 1486 1487 1488 1489 1490 1491 1491 1492 1492 1493 1493 1494 1495 1496 1496 1497 1498 1498 1499 1500 1501 1501 1501 1502 1502 1502 1503 1503 1504 1504 1505 1505 1506 1506 1506 1507 1507 1508 1508 1509 1510 1510 1511 1511 1512 1513 1513 1514 1515 1515 1516 1516 1517 1518 1518 1519 1519 1520 1520 1521 1521
1466 1466 1466 1467 1467 1468 1468 1469 1469 1470 1471 1472 1473 1474 1476 1476 1477 1478 1479 1479 1480 1481 1481 1483 1484 1485 1486 1486 1487 1488 1489 1490 1490 1491 1491 1491 1492 1493 1494 1495 1496 1496 1497 1498 1499 1500 1500 1500 1501 1501 1501 1502 1502 1503 1503 1504 1504 1505 1505 1506 1506 1507 1507 1508 1508 1509 1510 1510 1511 1512 1512 1513 1514 1514 1515 1516 1516 1517 1517 1518 1518 1519 1519 1520 1520 1520
1464 1464 1464 1465 1465 1466 1467 1467 1468 1469 1470 1471 1472 1473 1474 1475 1476 1476 1477 1477 1478 1479 1480 1481 1482 1483 1483 1484 1485 1486 1487 1488 1488 1489 1489 1490 1491 1492 1493 1494 1494 1495 1496 1497 1498 1498 1499 1499 1500 1500 1500 1501 1501 1502 1502 1503 1503 1504 1505 1505 1506 1506 1507 1507 1508 1509 1509 1510 1511 1511 1512 1513 1513 1514 1515 1515 1516 1516 1517 1517 1518 1518 1519 1519 1519 1520
1462 1462 1463 1463 1464 1465 1466 1466 1467 1468 1468 1470 1471 1471 1472 1473 1474 1475 1475 1475 1476 1477 1478 1479 1480 1480 1481 1482 1483 1484 1485 1486 1487 1487 1487 1488 1489 1491 1491 1492 1493 1494 1495 1496 1496 1497 1497 1498 1498 1499 1499 1500 1500 1501 1501 1502 1503 1503 1504 1505 1505 1506 1506 1507 1507 1508 1509 1510 1510 1511 1511 1512 1513 1513 1514 1515 1515 1516 1516 1517 1517 1518 1518 1519 1519 1519
1460 1461 1461 1461 1462 1463 1464 1465 1466 1466 1467 1468 1469 1470 1471 1471 1472 1473 1473 1473 1474 1475 1476 1477 1477 1478 1479 1480 1481 1482 1484 1485 1485 1486 1486 1487 1488 1489 1490 1491 1491 1492 1493 1494 1495 1496 1496 1496 1497 1498 1498 1499 1499 1500 1501 1501 1502 1502 1503 1504 1504 1505 1506 1506 1507 1508 1508 1509 1510 1510 1511 1512 1512 1513 1513 1514 1515 1515 1516 1516 1517 1517 1518 1518 1519 1519
1458 1459 1459 1460 1461 1462 1463 1464 1464 1465 1466 1467 1468 1468 1469 1470 1470 1471 1471 1471 1472 1474 1475 1475 1475 1476 1477 1478 1479 1481 1482 1483 1483 1484 1485 1486 1487 1487 1488 1489 1490 1491 1492 1493 1493 1494 1495 1495 1496 1496 1497 1498 1498 1499 1500 1500 1501 1501 1502 1503 1504 1504 1505 1506 1506 1507 1508 1508 1509 1510 1511 1511 1512 1512 1513 1514 1514 1515 1515 1516 1516 1517 1517 1518 1518 1519
1457 1457 1458 1459 1460 1461 1461 1462 1463 1464 1465 1466 1466 1467 1467 1468 1468 1469 1469 1470 1471 1472 1473 1473 1474 1474 1475 1476 1478 1480 1481 1481 1481 1482 1483 1484 1485 1486 1487 1488 1489 1490 1491 1491 1492 1493 1493 1494 1495 1496 1496 1497 1497 1498 1499 1499 1500 1501 1501 1502 1503 1504 1504 1505 1506 1506 1507 1508 1509 1509 1510 1511 1511 1512 1512 1513 1514 1514 1515 1515 1516 1516 1517 1517 1518 1518
1455 1456 1457 1457 1458 1459 1460 1461 1462 1462 1463 1464 1465 1465 1466 1466 1466 1467 1468 1469 1470 1471 1471 1472 1472 1473 1474 1476 1477 1478 1478 1479 1480 1481 1481 1482 1483 1484 1485 1486 1487 1488 1489 1490 1491 1491 1492 1492 1493 1494 1495 1496 1496 1497 1498 1498 1499 1500 1501 1501 1502 1503 1504 1504 1505 1506 1506 1507 1508 1509 1509 1510 1511 1511 1512 1512 1513 1514 1514 1515 1515 1516 1516 1517 1517 1518
1454 1455 1456 1456 1457 1458 1459 1460 1461 1461 1462 1462 1463 1463 1464 1465 1465 1466 1466 1467 1468 1469 1470 1470 1471 1471 1472 1474 1475 1475 1476 1477 1478 1479 1480 1481 1482 1482 1484 1485 1486 1487 1488 1489 1489 1490 1490 1491 1492 1493 1494 1495 1496 1496 1497 1497 1498 1499 1500 1501 1501 1502 1503 1504 1504 1505 1506 1506 1507 1508 1509 1509 1510 1511 1511 1512 1512 1513 1514 1514 1515 1515 1516 1516 1517 1517
1453 1454 1455 1456 1456 1457 1457 1458 1459 1460 1460 1461 1461 1462 1462 1463 1464 1464 1465 1466 1466 1467 1468 1469 1469 1470 1471 1472 1472 1473 1474 1476 1477 1477 1479 1480 1481 1481 1482 1483 1485 1486 1487 1487 1488 1488 1489 1490 1491 1492 1493 1494 1494 1495 1496 1497 1498 1498 1499 1500 1501 1501 1502 1503 1504 1504 1505 1506 1506 1507 1508 1509 1510 1510 1511 1511 1512 1512 1513 1514 1514 1515 1515 1516 1516 1517
1452 1453 1454 1454 1455 1456 1456 1457 1457 1458 1459 1459 1460 1461 1461 1462 1462 1463 1464 1465 1465 1466 1466 1467 1468 1469 1470 1471 1471 1472 1474 1475 1476 1476 1477 1478 1479 1480 1481 1482 1483 1484 1485 1486 1486 1487 1488 1488 1489 1491 1492 1493 1493 1494 1495 1496 1497 1497 1498 1499 1500 1501 1501 1502 1503 1504 1504 1505 1506 1507 1507 1508 1509 1509 1510 1511 1511 1512 1512 1513 1513 1514 1514 1515 1516 1516
1451 1451 1452 1453 1453 1454 1455 1455 1456 1456 1457 1458 1459 1459 1460 1461 1461 1462 1463 1463 1464 1465 1465 1466 1466 1467 1468 1470 1471 1472 1473 1474 1475 1475 1476 1477 1478 1479 1480 1481 1482 1483 1484 1484 1485 1486 1486 1487 1489 1490 1491 1492 1492 1493 1494 1495 1496 1497 1497 1498 1499 1500 1501 1501 1502 1503 1504 1505 1505 1506 1507 1507 1508 1509 1509 1510 1511 1511 1511 1512 1512 1513 1514 1514 1515 1515
1449 1450 1451 1451 1452 1452 1453 1454 1455 1455 1456 1457 1457 1458 1459 1460 1460 1461 1461 1462 1463 1464 1464 1465 1466 1466 1467 1468 1470 1471 1472 1473 1473 1474 1475 1476 1477 1478 1479 1480 1481 1481 1482 1483 1483 1484 1485 1486 1488 1489 1490 1491 1491 1492 1493 1494 1495 1496 1496 1497 1498 1499 1500 1501 1501 1502 1503 1504 1504 1505 1506 1506 1507 1508 1509 1509 1510 1510 1511 1511 1512 1512 1513 1513 1514 1514
1448 1448 1449 1450 1451 1451 1452 1452 1453 1454 1455 1455 1456 1457 1457 1458 1459 1460 1461 1461 1462 1463 1463 1464 1465 1466 1467 1468 1469 1470 1471 1472 1472 1473 1474 1475 1476 1477 1477 1478 1479 1480 1481 1481 1482 1483 1484 1486 1487 1488 1489 1490 1490 1491 1492 1493 1494 1495 1496 1496 1497 1498 1499 1500 1501 1501 1502 1503 1503 1504 1505 1506 1506 1507 1508 1508 1509 1509 1510 1510 1511 1511 1512 1512 1513 1513
1446 1447 1447 1448 1449 1450 1450 1451 1452 1452 1453 1454 1455 1456 1456 1457 1458 1459 1459 1460 1461 1461 1462 1463 1464 1465 1466 1467 1468 1469 1470 1471 1471 1471 1472 1474 1475 1476 1476 1477 1478 1479 1480 1481 1481 1482 1484 1485 1486 1487 1487 1488 1489 1490 1491 1492 1493 1494 1494 1495 1496 1497 1498 1499 1499 1500 1501 1502 1503 1503 1504 1505 1506 1506 1507 1507 1508 1509 1509 1510 1510 1510 1511 1511 1512 1512
1445 1445 1446 1447 1447 1448 1449 1450 1450 1451 1452 1453 1454 1454 1455 1456 1457 1457 1458 1459 1460 1461 1461 1462 1463 1464 1465 1466 1467 1468 1468 1469 1470 1470 1471 1472 1473 1474 1475 1476 1477 1478 1479 1480 1480 1481 1482 1484 1485 1485 1486 1487 1488 1489 1491 1491 1492 1493 1493 1494 1495 1496 1497 1498 1498 1499 1500 1501 1502 1503 1503 1504 1505 1506 1506 1506 1507 1508 1508 1509 1509 1510 1510 1511 1511 1511
1443 1443 1444 1445 1446 1446 1447 1448 1449 1450 1451 1451 1452 1453 1454 1455 1456 1456 1457 1458 1459 1460 1460 1461 1462 1463 1464 1465 1466 1466 1467 1468 1468 1469 1470 1471 1472 1473 1474 1475 1476 1477 1478 1478 1479 1480 1481 1482 1483 1484 1485 1486 1487 1488 1489 1490 1491 1492 1493 1493 1494 1495 1496 1497 1497 1498 1499 1500 1501 1502 1502 1503 1504 1505 1505 1506 1506 1507 1507 1508 1508 1509 1509 1509 1510 1510
1441 1442 1442 1443 1444 1445 1446 1447 1448 1449 1450 1450 1451 1452 1452 1453 1454 1455 1456 1457 1457 1458 1459 1460 1461 1462 1463 1464 1465 1466 1466 1467 1467 1468 1469 1470 1471 1472 1473 1474 1475 1476 1476 1477 1478 1479 1480 1481 1482 1484 1485 1486 1486 1487 1488 1489 1490 1491 1492 1492 1493 1494 1495 1496 1497 1497 1498 1499 1500 1501 1502 1502 1503 1504 1504 1505 1505 1506 1506 1507 1507 1508 1508 1508 1509 1509
1440 1440 1441 1442 1442 1443 1445 1446 1446 1447 1448 1449 1449 1450 1451 1452 1453 1453 1454 1455 1456 1457 1458 1459 1460 1461 1461 1463 1463 1464 1465 1466 1466 1467 1468 1469 1470 1471 1472 1473 1474 1475 1476 1476 1477 1478 1479 1481 1481 1482 1483 1484 1486 1487 1487 1488 1489 1490 1491 1491 1492 1494 1494 1495 1496 1496 1497 1498 1499 1500 1501 1501 1502 1503 1503 1504 1504 1505 1505 1506 1506 1506 1507 1507 1508 1508
1438 1439 1439 1440 1441 1442 1443 1444 1445 1446 1446 1447 1448 1449 1449 1450 1451 1452 1453 1454 1455 1456 1456 1457 1458 1459 1460 1461 1462 1463 1463 1464 1465 1466 1466 1467 1469 1470 1471 1472 1473 1474 1475 1476 1476 1477 1479 1480 1481 1481 1482 1483 1484 1486 1486 1487 1488 1489 1490 1491 1492 1493 1493 1494 1495 1496 1496 1497 1498 1499 1500 1500 1501 1501 1502 1503 1503 1504 1504 1505 1505 1506 1506 1506 1507 1507
1436 1437 1438 1439 1440 1441 1442 1443 1443 1444 1445 1446 1446 1447 1448 1449 1450 1451 1452 1453 1453 1454 1455 1456 1457 1458 1459 1460 1461 1461 1462 1463 1464 1465 1466 1466 1467 1469 1470 1471 1472 1473 1474 1475 1476 1476 1478 1479 1479 1480 1481 1482 1483 1485 1486 1486 1487 1488 1489 1490 1491 1491 1492 1493 1494 1495 1496 1496 1497 1498 1498 1499 1500 1500 1501 1501 1502 1502 1503 1503 1504 1504 1505 1505 1506 1506
1435 1435 1436 1437 1438 1439 1440 1441 1442 1442 1443 1444 1445 1446 1446 1448 1449 1450 1451 1451 1452 1453 1454 1455 1456 1457 1458 1459 1459 1460 1461 1461 1462 1463 1464 1465 1466 1467 1469 1470 1471 1472 1473 1474 1475 1476 1476 1477 1478 1479 1480 1481 1482 1484 1485 1486 1486 1487 1488 1489 1490 1491 1491 1492 1493 1494 1494 1495 1496 1496 1497 1498 1498 1499 1499 1500 1501 1501 1502 1502 1503 1503 1504 1504 1505 1505
1433 1434 1435 1436 1437 1438 1438 1439 1440 1441 1441 1442 1443 1444 1445 1446 1447 1448 1449 1450 1451 1452 1453 1454 1454 1455 1456 1457 1458 1459 1460 1460 1461 1462 1463 1464 1465 1466 1468 1469 1470 1471 1472 1473 1474 1475 1476 1476 1477 1478 1479 1481 1481 1483 1484 1485 1486 1486 1487 1488 1489 1490 1491 1491 1492 1493 1493 1494 1494 1495 1496 1496 1497 1497 1498 1499 1499 1500 1501 1501 1501 1502 1502 1503 1503 1504
1431 1432 1433 1434 1435 1436 1436 1437 1438 1439 1440 1441 1442 1443 1444 1445 1446 1447 1448 1449 1450 1450 1451 1452 1453 1454 1455 1456 1456 1457 1458 1459 1460 1461 1462 1463 1464 1465 1466 1467 1469 1470 1471 1472 1473 1474 1475 1476 1477 1478 1479 1480 1481 1482 1483 1484 1485 1486 1486 1487 1488 1489 1489 1490 1491 1491 1492 1493 1493 1494 1494 1495 1496 1496 1497 1497 1498 1499 1499 1500 1500 1501 1501 1502 1502 1503
1430 1431 1432 1433 1433 1434 1435 1436 1436 1437 1438 1439 1440 1441 1442 1443 1444 1445 1446 1447 1448 1449 1450 1451 1451 1452 1453 1454 1455 1456 1457 1458 1459 1460 1461 1462 1463 1464 1465 1466 1468 1469 1470 1471 1472 1473 1474 1475 1476 1477 1478 1479 1480 1481 1482 1483 1484 1485 1485 1486 1487 1487 1488 1489 1490 1491 1491 1491 1492 1492 1493 1494 1494 1495 1496 1496 1497 1497 1498 1498 1499 1499 1500 1500 1501 1501
1429 1430 1431 1431 1432 1433 1433 1434 1435 1436 1436 1437 1438 1440 1441 1442 1443 1444 1445 1446 1446 1447 1448 1449 1450 1451 1452 1453 1454 1455 1456 1457 1458 1459 1460 1461 1462 1463 1464 1465 1466 1468 1469 1470 1471 1472 1473 1474 1475 1476 1477 1478 1479 1480 1481 1482 1483 1484 1484 1485 1486 1486 1487 1488 1489 1490 1490 1491 1491 1491 1492 1492 1493 1494 1494 1495 1495 1496 1496 1497 1498 1498 1499 1499 1499 1500
1427 1428 1429 1430 1430 1431 1431 1432 1433 1434 1435 1436 1437 1438 1439 1440 1441 1442 1443 1444 1445 1446 1447 1448 1449 1450 1451 1452 1453 1454 1455 1456 1456 1458 1459 1460 1461 1462 1463 1464 1466 1467 1468 1469 1471 1471 1472 1474 1475 1476 1476 1477 1478 1479 1480 1481 1482 1482 1483 1484 1485 1485 1486 1486 1487 1488 1489 1489 1490 1491 1491 1491 1492 1492 1493 1493 1494 1495 1495 1496 1496 1497 1497 1497 1498 1498
1426 1426 1427 1428 1428 1429 1430 1431 1431 1432 1433 1435 1436 1436 1437 1439 1440 1441 1442 1443 1444 1445 1446 1446 1447 1448 1449 1450 1451 1452 1453 1454 1455 1456 1457 1459 1460 1461 1462 1463 1465 1466 1467 1468 1469 1471 1471 1473 1474 1475 1476 1476 1477 1478 1479 1480 1481 1481 1482 1483 1484 1484 1485 1486 1486 1487 1487 1488 1489 1489 1490 1490 1491 1491 1491 1492 1492 1493 1494 1494 1495 1496 1496 1496 1496 1497
1424 1425 1426 1426 1427 1427 1428 1429 1430 1431 1432 1433 1434 1435 1436 1437 1438 1439 1440 1441 1442 1443 1444 1445 1446 1447 1448 1449 1450 1451 1452 1453 1454 1455 1456 1458 1459 1460 1461 1463 1464 1465 1466 1467 1468 1469 1471 1471 1472 1474 1475 1476 1476 1477 1478 1479 1479 1480 1481 1482 1482 1483 1484 1484 1485 1485 1486 1487 1487 1488 1488 1489 1489 1490 1490 1491 1491 1492 1492 1493 1494 1494 1495 1495 1495 1496